Regional Weather Roundup
Issued by NWS Jackson, KY

Home | Current Version | Previous Version | Text Only | Print | Product List | Glossary Off
Versions: 1 2 3 4 5 6 7 8 9 10 11 12 13 14 15 16 17 18 19 20 21 22 23 24 25 26 27

000
ASUS43 KJKL 251510
RWRJKL

EAST KENTUCKY HOURLY WEATHER ROUNDUP
NATIONAL WEATHER SERVICE JACKSON KY
1100 AM EDT THU MAY 25 2017

NOTE: "FAIR" INDICATES FEW OR NO CLOUDS BELOW 12,000 FEET WITH
NO SIGNIFICANT WEATHER AND/OR OBSTRUCTIONS TO VISIBILITY.

* THESE REPORTS ARE NOT UNDER NWS QUALITY CONTROL AND MAY NOT
  REPORT WEATHER SUCH AS PRECIPITATION AND FOG.

KYZ079-080-083-085-087-088-110-112-115-119-120-251600
...EASTERN KENTUCKY...

CITY           SKY/WX    TMP DP  RH WIND       PRES   REMARKS
JACKSON        RAIN      53  53 100 VRB3      29.56S FOG
LONDON         LGT RAIN  55  52  89 SW10      29.59S FOG
SOMERSET*      DRIZZLE   54  54 100 W16       29.62S
MONTICELLO*    CLOUDY    56  54  93 W22G28    29.64S
WILLIAMSBURG*  CLOUDY    54  54 100 SW7       29.62S
MIDDLESBORO*   LGT RAIN  55  53  93 SW5       29.64S
HARLAN APT*    CLOUDY    54  50  87 SW3       29.62S
PIKE CO APT*   RAIN      53  53 100 SW6       29.57S
BIG SANDY APT* DRIZZLE   55  55 100 SW7       29.56S
MOREHEAD APT*  RAIN      55  54  94 S12       29.52S
$$

KYZ035-036-041-042-044-050-067-078-099-251600
...CENTRAL KENTUCKY...

CITY           SKY/WX    TMP DP  RH WIND       PRES   REMARKS
MT STERLING*   RAIN     N/A N/A N/A W10G17    29.52S
FLEMING/MASON* RAIN      56  55  99 SW10G17   29.47F
DANVILLE*      LGT RAIN  55  54  94 W13G21    29.57S
LEXINGTON      LGT RAIN  58  55  90 W15G24    29.51S FOG
FRANKFORT      LGT RAIN  58  55  90 W12G21    29.50R FOG
LOUISVILLE     LGT RAIN  59  57  93 W17       29.54R FOG
LEBANON*       CLOUDY    57  57 100 SW13G21   29.57S FOG
GLASGOW*       CLOUDY    57  57 100 W10G21    29.65R
BOWLING GREEN  CLOUDY    61  56  83 W14       29.67R
$$

KYZ091>093-OHZ055-061-077-WVZ005-015-034-035-042-251600
...SOUTHERN OHIO/WEST VIRGINIA...

CITY           SKY/WX    TMP DP  RH WIND       PRES   REMARKS
COVINGTON      LGT RAIN  60  58  92 NW9       29.45R
COLUMBUS       CLOUDY    60  59  96 S7        29.44S
DAYTON         PTSUNNY   62  57  83 NW3       29.44R
WILMINGTON     LGT RAIN  60  60 100 S8        29.44R
HUNTINGTON     LGT RAIN  57  52  83 S12G20    29.51S
CHARLESTON     CLOUDY    61  50  67 SW13      29.52S
PINEVILLE*     CLOUDY    58  50  76 MISG      29.63S
BECKLEY        CLOUDY    55  49  80 SW12      29.57S
BLUEFIELD      CLOUDY    55  46  71 W17G23    29.60S
LOGAN CO APT*  CLOUDY    55  50  82 CALM      29.56R
$$

VAZ002-007-008-TNZ017-027-036-066-071-251600
...SOUTHWEST VIRGINIA/EAST TENNESSEE...

CITY           SKY/WX    TMP DP  RH WIND       PRES   REMARKS
WISE*          CLOUDY    52  52 100 SW14      29.63S
JONESVILLE*    CLOUDY    54  52  94 CALM      29.65S
ABINGDON*      CLOUDY    57  51  81 W15       29.63S
BRISTOL        CLOUDY    58  50  75 SW13      29.63F
MORRISTOWN*    PTSUNNY   55  54  94 SW10G21   29.65S FOG
SEVIERVILLE*   CLOUDY    61  48  63 W14       29.67R
KNOXVILLE      CLOUDY    59  53  80 SW15      29.68R
LAFOLLETTE*    CLOUDY    59  52  77 W8        29.67S
OAK RIDGE      PTSUNNY   60  53  77 SW5       29.68S
CROSSVILLE     CLOUDY    55  50  83 W16G23    29.70S
NASHVILLE      PTSUNNY   64  54  69 W15       29.72S
$$

...KEY TO REMARKS...
VSB - VISIBILITY IN MILES
WCI - WIND CHILL INDEX
HX  - HEAT INDEX

$$




USA.gov is the U.S. government's official web portal to all federal, state and local government web resources and services.